Back to catalog

THOR ABLESTAR DEB

AliveLEO
NORAD 21986·DEBRIS·🇺🇸 United States

Launched Jun 29, 1961 from Cape Canaveral Space Force Station

Loading…

Next Passes (next 24 hours)

TLE

FreshSource: Space-Track

Epoch: Sep 14, 2026, 13:27 UTC

1 21986U 61015MM  26257.56054561  .00000200  00000-0  16145-3 0  9995
2 21986  66.8764 302.7883 0098943 323.5816 186.0935 14.06416101765461

Track THOR ABLESTAR DEB in real time with AllMySat

Download on the App Store